Regional Weather Roundup
Issued by NWS Green Bay, WI

Home | Current Version | Previous Version | Graphics & Text | Print | Product List | Glossary Off
Versions: 1 2 3 4 5 6 7 8 9 10 11 12 13 14 15 16 17 18 19 20 21 22 23 24 25 26 27 28 29 30 31 32 33 34 35 36 37 38 39 40 41 42 43 44 45 46 47 48 49 50

000
ASUS43 KGRB 270511
RWRGRB

NORTH-CENTRAL AND NORTHEAST WISCONSIN REGIONAL WEATHER ROUNDUP
NATIONAL WEATHER SERVICE GREEN BAY WI
1200 AM CDT MON MAR 27 2017

WIZ005-009-010>012-018-019-270600-
NORTH CENTRAL WISCONSIN

CITY           SKY/WX    TMP DP  RH WIND       PRES   REMARKS
IRONWOOD       FOG       32  32 100 NW3       29.91S VSB 1/4
MANITOWISH WTR CLOUDY    32  32 100 NW3       29.89R
ARBOR VITAE    CLOUDY    34  33  96 NW3       29.88R FOG
EAGLE RIVER    CLOUDY    33  33 100 N6        29.86S
LAND O LAKES   CLOUDY    32  32 100 N6        29.88S
RHINELANDER    CLOUDY    37  36  96 NW3       29.87R
PHILLIPS       CLOUDY    32  32 100 CALM      29.90R FOG
ANTIGO         CLOUDY    35  35 100 CALM      29.87R
TOMAHAWK       CLOUDY    35  34  96 NW5       29.90R
MERRILL        CLOUDY    37  37 100 NW3       29.89R
$$

WIZ013-073-270600-
NORTHEAST WISCONSIN

CITY           SKY/WX    TMP DP  RH WIND       PRES   REMARKS
IRON MOUNTAIN  LGT RAIN  35  33  92 CALM      29.84F FOG
MARINETTE        N/A    N/A N/A N/A MISG        N/A
OCONTO         CLOUDY    35  35  99 CALM      29.87S
$$

WIZ017-030-035>037-045-270600-
CENTRAL WISCONSIN

CITY           SKY/WX    TMP DP  RH WIND       PRES   REMARKS
MEDFORD        CLOUDY    37  36  96 N3        29.88F
WAUSAU         CLOUDY    38  38 100 NW3       29.88R
MOSINEE        CLOUDY    37  37 100 W5        29.90R
MARSHFIELD     FOG       38  37  97 W3        29.88S VSB 1/4
WISC RAPIDS    LGT RAIN  39  39 100 NW5       29.91S FOG
STEVENS POINT  CLOUDY    37  37 100 CALM      29.90R FOG
WAUPACA        CLOUDY    40  38  96 CALM      29.90R FOG
SHAWANO        DRIZZLE   38  37  94 W3        29.89R
CLINTONVILLE   CLOUDY    36  36 100 W5        29.89R
WAUTOMA        CLOUDY    39  37  93 NW3       29.90F
$$

WIZ038-039-048-051-270600-
FOX VALLEY

CITY           SKY/WX    TMP DP  RH WIND       PRES   REMARKS
NWS GREEN BAY  CLOUDY    37  37 100 CALM      29.89R
APPLETON       DRIZZLE   36  36 100 W3        29.88R
OSHKOSH        CLOUDY    39  37  92 NW5       29.89R
FOND DU LAC    LGT RAIN  39  36  89 NW6       29.89S
$$

WIZ022-050-052-270600-
EAST CENTRAL WISCONSIN

CITY           SKY/WX    TMP DP  RH WIND       PRES   REMARKS
EPHRAIM        FOG       33  33 100 N8        29.85S VSB 1/4
WASHINGTON ISL CLOUDY    33  33  99 N8        29.85F FOG
STURGEON BAY   CLOUDY    34  34 100 N8        29.87F FOG
MANITOWOC      CLOUDY    37  35  92 NW7       29.88S
SHEBOYGAN      LGT RAIN  39  37  92 W6        29.88R
$$

LMZ563-521-522-541>543-270600-
LAKESHORE

STATION/POSITION TIME  TEMP    WIND        PRES    VSBY  WAVE
                       AIR SEA DIR/SP/G                  HT/PER
                 (UTC) (F)     (DEG/KT/KT) (MB)    (MI)  (FT/S)
SHEBOYGAN LKSHOR 0500   40     280/  6/  8 1012.3R
KEWAUNEE LKSHORE 0448   36     340/  2/  5 1011.1S
NORTHPORT PIER   0440   33     320/  2/  7 1011.2F
SISTER BAY LKSHO 0406   35      20/  4/  6   N/A
CHAMBERS ISLAND  0440   33     330/  4/  4 1011.2S
MENOMINEE LKSHOR 0448   34     320/  2/  3 1010.7F
$$




USA.gov is the U.S. government's official web portal to all federal, state and local government web resources and services.